W5CRT Weather Reports


time (UTC)temp
F
wind
direction
speed
knots
gust
knots
rain 1hr
in
rain 24hr
in
rain mn
in
humidity
%
barometer
mb
20260505171603 80 154 6.1 13.0 0.00 0.00 0.00 69 1004.0
20260505171100 81 173 4.3 7.8 0.00 0.00 0.00 68 1003.8
20260505170557 81 189 5.2 7.0 0.00 0.00 0.00 68 1003.8
20260505170053 81 177 5.2 12.2 0.00 0.00 0.00 68 1003.4
20260505165548 81 248 3.5 7.0 0.00 0.00 0.00 70 1003.6
20260505165045 80 186 3.5 9.6 0.00 0.00 0.00 69 1003.5
20260505164540 80 178 2.6 11.3 0.00 0.00 0.00 71 1003.6
20260505164038 80 195 1.7 11.3 0.00 0.00 0.00 70 1003.8
20260505163537 79 182 7.0 7.8 0.00 0.00 0.00 71 1003.6
20260505163034 79 168 5.2 9.6 0.00 0.00 0.00 72 1003.6
20260505162532 78 178 4.3 16.5 0.00 0.00 0.00 72 1003.2
20260505162029 78 211 3.5 12.2 0.00 0.00 0.00 72 1003.4
20260505161525 78 187 3.5 10.4 0.00 0.00 0.00 72 1003.3
20260505161023 79 237 1.7 13.0 0.00 0.00 0.00 71 1003.2
20260505160521 78 261 2.6 7.0 0.00 0.00 0.00 73 1003.1
20260505152957 77 208 3.5 10.4 0.00 0.00 0.00 74 1003.3
20260505152455 76 210 6.1 13.9 0.00 0.00 0.00 76 1003.2
20260505151949 76 177 3.5 16.5 0.00 0.00 0.00 75 1003.4
20260505151445 76 157 5.2 12.2 0.00 0.00 0.00 76 1003.4
20260505150943 76 219 3.5 14.8 0.00 0.00 0.00 76 1003.1
20260505150439 76 200 5.2 11.3 0.00 0.00 0.00 76 1003.2
20260505140410 74 178 4.3 11.3 0.00 0.00 0.00 79 1003.0
20260505124823 72 155 4.3 6.1 0.00 0.00 0.00 81 1002.8
20260505124320 72 223 1.7 11.3 0.00 0.00 0.00 81 1002.8
20260505123816 72 149 5.2 9.6 0.00 0.00 0.00 82 1002.7
20260505123313 72 205 7.0 8.7 0.00 0.00 0.00 82 1002.5
20260505122809 72 146 0.9 9.6 0.00 0.00 0.00 82 1002.6
20260505122306 72 215 2.6 12.2 0.00 0.00 0.00 82 1002.7
20260505121802 72 155 11.3 15.6 0.00 0.00 0.00 82 1002.5
20260505121300 71 166 2.6 5.2 0.00 0.00 0.00 82 1002.4
20260505120756 71 161 5.2 6.1 0.00 0.00 0.00 82 1002.6
20260505120252 71 163 4.3 10.4 0.00 0.00 0.00 82 1002.4
20260505115751 71 192 2.6 9.6 0.00 0.00 0.00 82 1002.3
20260505115248 71 138 1.7 7.8 0.00 0.00 0.00 82 1002.4
20260505114746 71 178 6.1 9.6 0.00 0.00 0.00 82 1002.4
20260505114242 71 182 2.6 9.6 0.00 0.00 0.00 82 1001.8
20260505113739 71 206 3.5 9.6 0.00 0.00 0.00 82 1002.2
20260505113235 71 196 3.5 7.8 0.00 0.00 0.00 82 1002.2
20260505112731 71 168 2.6 8.7 0.00 0.00 0.00 82 1002.0
20260505112229 71 212 3.5 7.8 0.00 0.00 0.00 82 1002.3
20260505111729 71 148 2.6 9.6 0.00 0.00 0.00 82 1002.1
20260505111225 71 140 1.7 7.8 0.00 0.00 0.00 82 1002.1
20260505110721 71 168 4.3 7.0 0.00 0.00 0.00 82 1001.7
20260505110219 71 161 2.6 9.6 0.00 0.00 0.00 82 1001.7
20260505102154 71 163 2.6 7.8 0.00 0.00 0.00 82 1002.3
20260505101653 71 186 5.2 7.0 0.00 0.00 0.00 81 1002.0
20260505101149 71 169 2.6 9.6 0.00 0.00 0.00 81 1002.1
20260505100645 71 79 2.6 7.0 0.00 0.00 0.00 82 1002.3
20260505100142 71 152 3.5 7.0 0.00 0.00 0.00 82 1002.2
20260505095638 71 191 5.2 7.0 0.00 0.00 0.00 82 1002.5
20260505095135 71 159 3.5 7.8 0.00 0.00 0.00 82 1002.6
20260505094631 71 119 7.8 14.8 0.00 0.00 0.00 82 1002.5
20260505094128 71 109 0.9 9.6 0.00 0.00 0.00 82 1002.5
20260505093624 71 169 7.0 14.8 0.00 0.00 0.00 82 1002.5
20260505093121 71 133 3.5 10.4 0.00 0.00 0.00 82 1002.4
20260505092618 71 153 5.2 10.4 0.00 0.00 0.00 82 1002.8
20260505092118 71 210 3.5 10.4 0.00 0.00 0.00 82 1002.6
20260505091613 71 160 4.3 11.3 0.00 0.00 0.00 82 1002.8
20260505091112 71 168 1.7 7.8 0.00 0.00 0.00 82 1002.4
20260505090609 71 160 8.7 9.6 0.00 0.00 0.00 82 1002.4
20260505090107 71 162 7.0 10.4 0.00 0.00 0.00 82 1002.4
20260505085604 71 182 7.0 9.6 0.00 0.00 0.00 82 1002.4
20260505085103 71 212 7.8 16.5 0.00 0.00 0.00 82 1002.5
20260505084600 71 164 7.8 13.9 0.00 0.00 0.00 82 1002.3
20260505084058 71 176 5.2 14.8 0.00 0.00 0.00 82 1002.2
20260505083555 71 160 7.0 10.4 0.00 0.00 0.00 82 1002.4
20260505083052 71 212 4.3 7.0 0.00 0.00 0.00 82 1002.1
20260505082547 71 175 4.3 12.2 0.00 0.00 0.00 82 1002.5
20260505082045 71 163 5.2 13.0 0.00 0.00 0.00 82 1002.4
20260505081541 71 132 2.6 9.6 0.00 0.00 0.00 82 1002.4
20260505081038 71 140 3.5 9.6 0.00 0.00 0.00 82 1002.6
20260505080534 71 145 1.7 7.0 0.00 0.00 0.00 82 1002.5
20260505080031 71 146 4.3 12.2 0.00 0.00 0.00 81 1002.6
20260505075527 71 157 5.2 7.8 0.00 0.00 0.00 81 1002.7
20260505075024 71 165 7.8 10.4 0.00 0.00 0.00 81 1002.9
20260505074521 71 218 6.1 7.8 0.00 0.00 0.00 81 1002.8
20260505074018 71 188 4.3 8.7 0.00 0.00 0.00 80 1003.1
20260505073516 71 164 3.5 8.7 0.00 0.00 0.00 80 1003.0
20260505073014 71 175 5.2 11.3 0.00 0.00 0.00 80 1003.2
20260505072509 71 149 0.9 7.0 0.00 0.00 0.00 80 1003.2
20260505072006 72 167 4.3 5.2 0.00 0.00 0.00 79 1003.3
20260505071501 72 147 3.5 11.3 0.00 0.00 0.00 79 1003.2
20260505071000 72 188 5.2 7.8 0.00 0.00 0.00 79 1003.5
20260505070456 72 173 6.1 12.2 0.00 0.00 0.00 79 1003.5
20260505065952 72 138 7.0 8.7 0.00 0.00 0.00 78 1003.5
20260505065448 72 163 3.5 8.7 0.00 0.00 0.00 78 1003.5
20260505064945 72 309 2.6 7.8 0.00 0.00 0.00 78 1003.8
20260505064442 72 180 5.2 7.0 0.00 0.00 0.00 78 1003.7
20260505063941 72 162 2.6 8.7 0.00 0.00 0.00 77 1003.8
20260505063437 72 135 6.1 10.4 0.00 0.00 0.00 77 1003.7
20260505062933 72 162 5.2 7.0 0.00 0.00 0.00 77 1003.6
20260505062431 72 163 7.8 8.7 0.00 0.00 0.00 77 1003.8
20260505061927 72 132 2.6 10.4 0.00 0.00 0.00 76 1003.8
20260505061426 72 92 3.5 6.1 0.00 0.00 0.00 76 1003.9
20260505060923 72 200 3.5 14.8 0.00 0.00 0.00 76 1003.6
20260505060419 72 169 3.5 10.4 0.00 0.00 0.00 76 1004.0
20260505055916 72 177 5.2 14.8 0.00 0.00 0.00 76 1003.9
20260505055412 72 154 1.7 5.2 0.00 0.00 0.00 76 1003.9
20260505054909 72 190 2.6 7.8 0.00 0.00 0.00 75 1004.0
20260505054406 72 126 4.3 11.3 0.00 0.00 0.00 75 1004.2
20260505053904 73 151 2.6 9.6 0.00 0.00 0.00 74 1004.2
20260505053401 73 190 2.6 9.6 0.00 0.00 0.00 74 1004.2
20260505052858 73 209 6.1 9.6 0.00 0.00 0.00 74 1004.3
20260505052355 73 166 6.1 10.4 0.00 0.00 0.00 74 1004.2
20260505051852 73 182 3.5 9.6 0.00 0.00 0.00 73 1004.1
20260505051349 73 122 1.7 13.0 0.00 0.00 0.00 73 1004.0
20260505050847 73 155 6.1 11.3 0.00 0.00 0.00 73 1004.0
20260505050345 73 168 3.5 10.4 0.00 0.00 0.00 72 1004.2
20260505041312 73 151 3.5 5.2 0.00 0.00 0.00 72 1004.7
20260505040810 73 189 5.2 5.2 0.00 0.00 0.00 71 1004.6
20260505040307 73 172 2.6 5.2 0.00 0.00 0.00 71 1004.9
20260505035803 73 131 7.0 10.4 0.00 0.00 0.00 71 1004.6
20260505035259 73 173 1.7 7.8 0.00 0.00 0.00 71 1004.4
20260505034757 73 156 2.6 8.7 0.00 0.00 0.00 71 1004.3
20260505034254 73 150 3.5 7.0 0.00 0.00 0.00 71 1004.4
20260505033750 73 150 2.6 7.8 0.00 0.00 0.00 71 1004.5
20260505033248 73 157 2.6 6.1 0.00 0.00 0.00 71 1004.7
20260505032746 73 172 2.6 5.2 0.00 0.00 0.00 71 1004.5
20260505032241 73 181 1.7 6.1 0.00 0.00 0.00 71 1004.4
20260505031739 73 141 5.2 6.1 0.00 0.00 0.00 70 1004.6
20260505031235 73 122 3.5 7.8 0.00 0.00 0.00 70 1004.7
20260505030732 73 159 2.6 5.2 0.00 0.00 0.00 70 1004.6
20260505030228 73 160 1.7 7.0 0.00 0.00 0.00 69 1004.9
20260505025724 73 167 2.6 5.2 0.00 0.00 0.00 69 1004.9
20260505025222 73 174 3.5 5.2 0.00 0.00 0.00 69 1004.6
20260505024720 74 187 2.6 7.0 0.00 0.00 0.00 68 1004.8
20260505024217 74 145 4.3 6.1 0.00 0.00 0.00 68 1004.7
20260505023715 74 134 2.6 6.1 0.00 0.00 0.00 67 1004.7
20260505023212 74 140 3.5 6.1 0.00 0.00 0.00 67 1004.7
20260505022709 74 130 2.6 5.2 0.00 0.00 0.00 67 1004.6
20260505022206 74 144 3.5 5.2 0.00 0.00 0.00 66 1004.5
20260505021703 74 159 5.2 8.7 0.00 0.00 0.00 66 1004.5
20260505021159 74 348 1.7 5.2 0.00 0.00 0.00 66 1004.4
20260505020655 75 130 0.9 4.3 0.00 0.00 0.00 66 1004.6
20260505020151 75 146 1.7 4.3 0.00 0.00 0.00 65 1004.6
20260505015648 75 157 5.2 10.4 0.00 0.00 0.00 65 1004.6
20260505015145 75 175 3.5 8.7 0.00 0.00 0.00 64 1004.5
20260505014642 75 159 3.5 8.7 0.00 0.00 0.00 64 1004.6
20260505014139 76 140 2.6 5.2 0.00 0.00 0.00 64 1004.5
20260505013636 76 109 1.7 10.4 0.00 0.00 0.00 64 1004.5
20260505013133 76 176 7.8 9.6 0.00 0.00 0.00 63 1004.5
20260505012632 76 226 1.7 7.0 0.00 0.00 0.00 63 1004.6
20260505012128 76 117 2.6 7.8 0.00 0.00 0.00 63 1004.4
20260505011624 76 112 1.7 7.8 0.00 0.00 0.00 63 1004.6
20260505011121 76 139 1.7 7.0 0.00 0.00 0.00 62 1004.5
20260505010616 76 139 3.5 8.7 0.00 0.00 0.00 62 1004.5
20260505010114 76 150 3.5 12.2 0.00 0.00 0.00 62 1004.6
20260505005609 76 182 4.3 5.2 0.00 0.00 0.00 62 1004.7
20260505005107 77 147 4.3 8.7 0.00 0.00 0.00 61 1004.6
20260505004604 77 146 4.3 8.7 0.00 0.00 0.00 61 1004.3
20260505004101 77 188 7.8 9.6 0.00 0.00 0.00 61 1004.3
20260505003558 77 149 3.5 5.2 0.00 0.00 0.00 61 1004.6
20260505003055 77 175 3.5 8.7 0.00 0.00 0.00 60 1004.5
20260505002556 78 165 1.7 8.7 0.00 0.00 0.00 60 1004.9
20260505002055 78 198 4.3 7.0 0.00 0.00 0.00 59 1004.7
20260505001552 79 152 5.2 13.9 0.00 0.00 0.00 58 1004.8
20260505001049 79 186 6.1 11.3 0.00 0.00 0.00 57 1004.7
20260505000546 79 144 3.5 14.8 0.00 0.00 0.00 57 1004.5
20260505000044 79 201 4.3 8.7 0.00 0.00 0.00 57 1004.6
20260504235540 79 155 2.6 8.7 0.00 0.00 0.00 58 1004.7
20260504235037 79 184 4.3 5.2 0.00 0.00 0.00 58 1004.8
20260504234534 79 171 5.2 6.1 0.00 0.00 0.00 57 1004.6
20260504234031 79 153 3.5 10.4 0.00 0.00 0.00 57 1005.0
20260504233526 79 171 7.0 10.4 0.00 0.00 0.00 56 1005.0
20260504233023 79 163 4.3 9.6 0.00 0.00 0.00 56 1004.8
20260504232520 79 205 6.1 9.6 0.00 0.00 0.00 56 1004.8
20260504232018 79 288 1.7 6.1 0.00 0.00 0.00 56 1005.0
20260504231514 80 130 4.3 11.3 0.00 0.00 0.00 55 1005.3
20260504231010 81 200 1.7 9.6 0.00 0.00 0.00 53 1005.2
20260504230507 81 166 1.7 12.2 0.00 0.00 0.00 53 1005.1
20260504230006 81 179 7.0 14.8 0.00 0.00 0.00 53 1005.3
20260504225502 82 140 7.0 9.6 0.00 0.00 0.00 52 1005.5
20260504225000 81 180 6.1 9.6 0.00 0.00 0.00 53 1005.5
20260504224456 81 166 3.5 9.6 0.00 0.00 0.00 53 1005.0
20260504223953 81 181 5.2 12.2 0.00 0.00 0.00 54 1005.0
20260504223449 82 172 6.1 13.9 0.00 0.00 0.00 52 1005.4
20260504222945 82 166 1.7 9.6 0.00 0.00 0.00 52 1005.2
20260504222443 82 175 5.2 7.8 0.00 0.00 0.00 52 1005.6
20260504221940 82 165 4.3 10.4 0.00 0.00 0.00 52 1005.4
20260504221437 82 157 2.6 11.3 0.00 0.00 0.00 52 1005.6
20260504220934 82 165 4.3 7.8 0.00 0.00 0.00 52 1005.6
20260504220431 82 163 3.5 7.8 0.00 0.00 0.00 51 1005.5
20260504215928 83 208 6.1 11.3 0.00 0.00 0.00 50 1005.6
20260504215425 82 186 4.3 9.6 0.00 0.00 0.00 52 1005.8
20260504214921 81 204 6.1 7.8 0.00 0.00 0.00 52 1005.8
20260504214418 81 160 8.7 9.6 0.00 0.00 0.00 51 1006.0
20260504213914 82 226 1.7 9.6 0.00 0.00 0.00 51 1006.3
20260504213410 83 168 3.5 7.8 0.00 0.00 0.00 50 1006.2
20260504212908 82 221 1.7 8.7 0.00 0.00 0.00 51 1006.2
20260504212403 82 181 4.3 8.7 0.00 0.00 0.00 50 1006.4
20260504211902 81 178 6.1 11.3 0.00 0.00 0.00 51 1006.5
20260504211357 81 131 4.3 10.4 0.00 0.00 0.00 49 1006.5
20260504210855 81 195 9.6 9.6 0.00 0.00 0.00 50 1006.4
20260504210351 81 164 4.3 13.9 0.00 0.00 0.00 50 1006.4
20260504205849 81 160 6.1 9.6 0.00 0.00 0.00 50 1006.6
20260504205346 81 175 8.7 11.3 0.00 0.00 0.00 49 1007.0
20260504204844 82 179 7.0 13.0 0.00 0.00 0.00 48 1006.8
20260504204343 81 185 3.5 11.3 0.00 0.00 0.00 48 1006.9
20260504203842 82 173 4.3 10.4 0.00 0.00 0.00 48 1007.1
20260504203338 81 157 4.3 15.6 0.00 0.00 0.00 49 1007.1
20260504202834 82 214 7.0 15.6 0.00 0.00 0.00 47 1007.4
20260504202331 82 201 6.1 9.6 0.00 0.00 0.00 47 1007.7
20260504201828 82 204 10.4 11.3 0.00 0.00 0.00 48 1007.4
20260504201325 82 208 1.7 7.0 0.00 0.00 0.00 49 1008.0
20260504200823 81 175 3.5 7.8 0.00 0.00 0.00 50 1007.8
20260504200319 81 206 0.0 7.8 0.00 0.00 0.00 50 1008.0
20260504195815 81 248 1.7 9.6 0.00 0.00 0.00 49 1007.8
20260504195311 81 83 1.7 8.7 0.00 0.00 0.00 50 1008.0
20260504194808 80 188 3.5 8.7 0.00 0.00 0.00 50 1008.1
20260504194304 80 181 11.3 14.8 0.00 0.00 0.00 47 1007.8
20260504193800 80 178 5.2 9.6 0.00 0.00 0.00 48 1008.1
20260504193258 80 179 4.3 10.4 0.00 0.00 0.00 47 1008.3
20260504192757 79 169 2.6 11.3 0.00 0.00 0.00 48 1008.3
20260504192254 80 199 7.8 20.9 0.00 0.00 0.00 46 1008.6
20260504191753 80 230 5.2 8.7 0.00 0.00 0.00 46 1009.0
20260504191249 80 164 3.5 13.9 0.00 0.00 0.00 46 1008.8
20260504190745 81 258 2.6 9.6 0.00 0.00 0.00 44 1008.7
20260504190241 80 204 6.1 7.8 0.00 0.00 0.00 45 1008.9
20260504185738 81 182 3.5 8.7 0.00 0.00 0.00 45 1009.0
20260504185235 80 168 4.3 9.6 0.00 0.00 0.00 44 1008.6
20260504184731 79 169 3.5 8.7 0.00 0.00 0.00 45 1008.7
20260504184227 79 168 5.2 9.6 0.00 0.00 0.00 45 1008.7
20260504183723 79 171 4.3 10.4 0.00 0.00 0.00 46 1008.9
20260504183220 79 192 5.2 9.6 0.00 0.00 0.00 46 1009.2
20260504182718 78 166 6.1 9.6 0.00 0.00 0.00 47 1009.2
20260504182215 78 171 5.2 9.6 0.00 0.00 0.00 48 1009.4
20260504181713 78 168 7.0 10.4 0.00 0.00 0.00 46 1009.4
20260504181210 79 175 7.8 13.0 0.00 0.00 0.00 46 1009.3
20260504180709 79 148 7.0 9.6 0.00 0.00 0.00 47 1009.4
20260504180207 78 208 1.7 12.2 0.00 0.00 0.00 48 1009.5
20260504175704 78 186 2.6 11.3 0.00 0.00 0.00 48 1009.7
20260504175201 78 184 2.6 12.2 0.00 0.00 0.00 48 1010.0
20260504174659 78 199 4.3 8.7 0.00 0.00 0.00 47 1010.0
20260504174156 77 193 3.5 8.7 0.00 0.00 0.00 47 1009.8
20260504173652 76 124 2.6 14.8 0.00 0.00 0.00 48 1010.3
20260504173150 76 226 6.1 12.2 0.00 0.00 0.00 47 1010.3
20260504172646 76 190 4.3 9.6 0.00 0.00 0.00 49 1010.1
20260504172143 76 219 6.1 8.7 0.00 0.00 0.00 49 1010.3